User: anonymous   Login
Location: Boca do Mato
(22.9085°S, 43.2930°W)
Time: 13:06:18
(UTC+00:00)
Language:

Cosmos 1025 Rocket - Orbit

View from above orbital plane
View from above orbital plane
View from above satellite
View from above satellite

Ground track
Ground track

The orbit data is extracted from the following two-line orbital elements,

1 10974U 78067B   20262.62728428 +.00000076 +00000-0 +57105-5 0  9996
2 10974 082.4807 122.6145 0017550 006.7095 353.4354 14.87361016263249
Epoch (UTC): 18 September 2020 15:03:17
Eccentricity: 0.0017550
inclination: 82.4807°
perigee height: 594 km
apogee height: 618 km
right ascension of ascending node: 122.6145°
argument of perigee: 6.7095°
revolutions per day: 14.87361016
mean anomaly at epoch: 353.4354°
orbit number at epoch: 26324

The dashed part of the orbit path shows where the satellite is in the earth's shadow,  

DLR